Time,TemperatureF,DewpointF,PressureIn,WindDirection,WindDirectionDegrees,WindSpeedMPH,WindSpeedGustMPH,Humidity,HourlyPrecipIn,Conditions,Clouds,dailyrainin,SoftwareType,DateUTC
2013-06-14 00:01:00,47.6,43.9,28.14,South,178,0.0,0.0,87,0.00,,---,0.00,VWS V14.01,2013-06-14 05:01:00,
2013-06-14 00:06:00,47.4,44.3,28.14,South,178,0.0,0.0,89,0.00,,---,0.00,VWS V14.01,2013-06-14 05:06:00,
2013-06-14 00:11:00,47.3,44.5,28.14,South,178,0.0,0.0,90,0.00,,---,0.00,VWS V14.01,2013-06-14 05:11:00,
2013-06-14 00:17:00,47.1,44.6,28.13,South,178,0.0,0.0,91,0.00,,---,0.00,VWS V14.01,2013-06-14 05:17:00,
2013-06-14 00:22:00,46.8,44.3,28.13,South,178,0.0,0.0,91,0.00,,---,0.00,VWS V14.01,2013-06-14 05:22:00,
2013-06-14 00:27:00,46.7,44.5,28.13,South,178,0.0,0.0,92,0.00,,---,0.00,VWS V14.01,2013-06-14 05:27:00,
2013-06-14 00:32:00,46.4,44.2,28.13,South,178,0.0,0.0,92,0.00,,---,0.00,VWS V14.01,2013-06-14 05:32:00,
2013-06-14 00:37:00,46.1,43.9,28.13,South,178,0.0,0.0,92,0.00,,---,0.00,VWS V14.01,2013-06-14 05:37:00,
2013-06-14 00:42:00,45.8,43.6,28.13,South,178,0.0,0.0,92,0.00,,---,0.00,VWS V14.01,2013-06-14 05:42:00,
2013-06-14 00:47:00,45.7,43.5,28.14,South,178,0.0,0.0,92,0.00,,---,0.00,VWS V14.01,2013-06-14 05:47:00,
2013-06-14 00:53:00,45.4,43.5,28.14,South,178,0.0,0.0,93,0.00,,---,0.00,VWS V14.01,2013-06-14 05:53:00,
2013-06-14 00:58:00,45.0,43.1,28.14,South,178,0.0,0.0,93,0.00,,---,0.00,VWS V14.01,2013-06-14 05:58:00,
2013-06-14 01:03:00,44.9,43.0,28.13,South,178,0.0,0.0,93,0.00,,---,0.00,VWS V14.01,2013-06-14 06:03:00,
2013-06-14 01:08:00,44.7,42.8,28.13,South,178,0.0,0.0,93,0.00,,---,0.00,VWS V14.01,2013-06-14 06:08:00,
2013-06-14 01:13:00,44.4,42.5,28.13,South,178,0.0,0.0,93,0.00,,---,0.00,VWS V14.01,2013-06-14 06:13:00,
2013-06-14 01:19:00,44.1,42.5,28.13,South,178,0.0,0.0,94,0.00,,---,0.00,VWS V14.01,2013-06-14 06:19:00,
2013-06-14 01:24:00,43.8,41.9,28.13,South,178,0.0,0.0,93,0.00,,---,0.00,VWS V14.01,2013-06-14 06:24:00,
2013-06-14 01:29:00,43.6,42.0,28.13,South,178,0.0,0.0,94,0.00,,---,0.00,VWS V14.01,2013-06-14 06:29:00,
2013-06-14 01:34:00,43.4,41.8,28.13,South,178,0.0,0.0,94,0.00,,---,0.00,VWS V14.01,2013-06-14 06:34:00,
2013-06-14 01:39:00,43.3,41.7,28.13,South,178,0.0,0.0,94,0.00,,---,0.00,VWS V14.01,2013-06-14 06:39:00,
2013-06-14 01:44:00,43.3,41.7,28.13,South,178,0.0,0.0,94,0.00,,---,0.00,VWS V14.01,2013-06-14 06:44:00,
2013-06-14 01:49:00,43.2,41.9,28.13,South,178,0.0,0.0,95,0.00,,---,0.00,VWS V14.01,2013-06-14 06:49:00,
2013-06-14 01:55:00,43.1,41.8,28.13,South,178,0.0,0.0,95,0.00,,---,0.00,VWS V14.01,2013-06-14 06:55:00,
2013-06-14 02:00:00,42.9,41.6,28.13,South,178,0.0,0.0,95,0.00,,---,0.00,VWS V14.01,2013-06-14 07:00:00,
2013-06-14 02:05:00,42.5,41.2,28.12,South,178,0.0,0.0,95,0.00,,---,0.00,VWS V14.01,2013-06-14 07:05:00,
2013-06-14 02:10:00,42.4,41.1,28.12,South,178,0.0,0.0,95,0.00,,---,0.00,VWS V14.01,2013-06-14 07:10:00,
2013-06-14 02:15:00,42.3,41.0,28.12,South,178,0.0,0.0,95,0.00,,---,0.00,VWS V14.01,2013-06-14 07:15:00,
2013-06-14 02:20:00,42.4,41.1,28.12,South,178,0.0,0.0,95,0.00,,---,0.00,VWS V14.01,2013-06-14 07:20:00,
2013-06-14 02:25:00,42.0,40.7,28.12,South,178,0.0,0.0,95,0.00,,---,0.00,VWS V14.01,2013-06-14 07:25:00,
2013-06-14 02:30:00,41.6,40.3,28.12,South,178,0.0,0.0,95,0.00,,---,0.00,VWS V14.01,2013-06-14 07:30:00,
2013-06-14 02:36:00,41.6,40.3,28.12,South,178,0.0,0.0,95,0.00,,---,0.00,VWS V14.01,2013-06-14 07:36:00,
2013-06-14 02:41:00,41.6,40.3,28.12,South,178,0.0,0.0,95,0.00,,---,0.00,VWS V14.01,2013-06-14 07:41:00,
2013-06-14 02:46:00,41.6,40.3,28.12,South,178,0.0,0.0,95,0.00,,---,0.00,VWS V14.01,2013-06-14 07:46:00,
2013-06-14 02:51:00,41.5,40.2,28.12,South,178,0.0,0.0,95,0.00,,---,0.00,VWS V14.01,2013-06-14 07:51:00,
2013-06-14 02:56:00,41.4,40.1,28.12,South,178,0.0,0.0,95,0.00,,---,0.00,VWS V14.01,2013-06-14 07:56:00,
2013-06-14 03:01:00,41.4,40.1,28.12,South,178,0.0,0.0,95,0.00,,---,0.00,VWS V14.01,2013-06-14 08:01:00,
2013-06-14 03:06:00,41.4,40.3,28.12,South,178,0.0,0.0,96,0.00,,---,0.00,VWS V14.01,2013-06-14 08:06:00,
2013-06-14 03:11:00,41.3,40.2,28.12,South,178,0.0,0.0,96,0.00,,---,0.00,VWS V14.01,2013-06-14 08:11:00,
2013-06-14 03:17:00,41.2,40.2,28.12,South,178,0.0,0.0,96,0.00,,---,0.00,VWS V14.01,2013-06-14 08:17:00,
2013-06-14 03:22:00,41.1,39.8,28.12,South,178,0.0,0.0,95,0.00,,---,0.00,VWS V14.01,2013-06-14 08:22:00,
2013-06-14 03:27:00,41.0,39.7,28.12,South,178,0.0,0.0,95,0.00,,---,0.00,VWS V14.01,2013-06-14 08:27:00,
2013-06-14 03:32:00,41.0,40.0,28.13,South,178,0.0,0.0,96,0.00,,---,0.00,VWS V14.01,2013-06-14 08:32:00,
2013-06-14 03:37:00,41.0,40.0,28.13,South,178,0.0,0.0,96,0.00,,---,0.00,VWS V14.01,2013-06-14 08:37:00,
2013-06-14 03:42:00,40.9,39.8,28.13,South,178,0.0,0.0,96,0.00,,---,0.00,VWS V14.01,2013-06-14 08:42:00,
2013-06-14 03:47:00,40.7,39.7,28.13,South,178,0.0,0.0,96,0.00,,---,0.00,VWS V14.01,2013-06-14 08:47:00,
2013-06-14 03:53:00,40.6,39.5,28.13,South,178,0.0,0.0,96,0.00,,---,0.00,VWS V14.01,2013-06-14 08:53:00,
2013-06-14 03:58:00,40.4,39.3,28.13,South,178,0.0,0.0,96,0.00,,---,0.00,VWS V14.01,2013-06-14 08:58:00,
2013-06-14 04:03:00,40.4,39.3,28.13,South,178,0.0,0.0,96,0.00,,---,0.00,VWS V14.01,2013-06-14 09:03:00,
2013-06-14 04:08:00,40.2,39.2,28.13,South,178,0.0,0.0,96,0.00,,---,0.00,VWS V14.01,2013-06-14 09:08:00,
2013-06-14 04:13:00,39.9,38.8,28.13,South,178,0.0,0.0,96,0.00,,---,0.00,VWS V14.01,2013-06-14 09:13:00,
2013-06-14 04:18:00,39.5,38.5,28.12,South,178,0.0,0.0,96,0.00,,---,0.00,VWS V14.01,2013-06-14 09:18:00,
2013-06-14 04:23:00,39.5,38.5,28.12,South,178,0.0,0.0,96,0.00,,---,0.00,VWS V14.01,2013-06-14 09:23:00,
2013-06-14 04:29:00,39.7,38.7,28.12,South,178,0.0,0.0,96,0.00,,---,0.00,VWS V14.01,2013-06-14 09:29:00,
2013-06-14 04:34:00,39.5,38.5,28.12,South,178,0.0,0.0,96,0.00,,---,0.00,VWS V14.01,2013-06-14 09:34:00,
2013-06-14 04:39:00,39.3,38.3,28.12,South,178,0.0,0.0,96,0.00,,---,0.00,VWS V14.01,2013-06-14 09:39:00,
2013-06-14 04:44:00,39.3,38.3,28.12,South,178,0.0,0.0,96,0.00,,---,0.00,VWS V14.01,2013-06-14 09:44:00,
2013-06-14 04:49:00,39.4,38.4,28.12,South,178,0.0,0.0,96,0.00,,---,0.00,VWS V14.01,2013-06-14 09:49:00,
2013-06-14 04:54:00,39.6,38.6,28.12,South,178,0.0,0.0,96,0.00,,---,0.00,VWS V14.01,2013-06-14 09:54:00,
2013-06-14 04:59:00,39.8,38.8,28.12,South,178,0.0,0.0,96,0.00,,---,0.00,VWS V14.01,2013-06-14 09:59:00,
2013-06-14 05:04:00,39.4,38.4,28.12,South,178,0.0,0.0,96,0.00,,---,0.00,VWS V14.01,2013-06-14 10:04:00,
2013-06-14 05:10:00,39.0,38.0,28.12,South,178,0.0,0.0,96,0.00,,---,0.00,VWS V14.01,2013-06-14 10:10:00,
2013-06-14 05:15:00,39.1,38.1,28.12,South,178,0.0,0.0,96,0.00,,---,0.00,VWS V14.01,2013-06-14 10:15:00,
2013-06-14 05:20:00,39.4,38.4,28.12,South,178,0.0,0.0,96,0.00,,---,0.00,VWS V14.01,2013-06-14 10:20:00,
2013-06-14 05:25:00,39.6,38.6,28.12,South,178,0.0,0.0,96,0.00,,---,0.00,VWS V14.01,2013-06-14 10:25:00,
2013-06-14 05:30:00,39.9,38.8,28.12,South,178,0.0,0.0,96,0.00,,---,0.00,VWS V14.01,2013-06-14 10:30:00,
2013-06-14 05:36:00,39.9,38.8,28.12,South,178,0.0,0.0,96,0.00,,---,0.00,VWS V14.01,2013-06-14 10:36:00,
2013-06-14 05:41:00,40.4,39.3,28.12,South,178,0.0,0.0,96,0.00,,---,0.00,VWS V14.01,2013-06-14 10:41:00,
2013-06-14 05:46:00,40.7,39.9,28.12,South,178,0.0,0.0,97,0.00,,---,0.00,VWS V14.01,2013-06-14 10:46:00,
2013-06-14 05:51:00,40.7,39.7,28.12,South,178,0.0,0.0,96,0.00,,---,0.00,VWS V14.01,2013-06-14 10:51:00,
2013-06-14 05:56:00,41.0,40.0,28.12,South,178,0.0,0.0,96,0.00,,---,0.00,VWS V14.01,2013-06-14 10:56:00,
2013-06-14 06:01:00,41.5,40.7,28.12,South,178,0.0,0.0,97,0.00,,---,0.00,VWS V14.01,2013-06-14 11:01:00,
2013-06-14 06:06:00,41.7,40.9,28.12,South,178,0.0,0.0,97,0.00,,---,0.00,VWS V14.01,2013-06-14 11:06:00,
2013-06-14 06:11:00,42.1,41.3,28.12,South,178,0.0,0.0,97,0.00,,---,0.00,VWS V14.01,2013-06-14 11:11:00,
2013-06-14 06:17:00,42.5,41.7,28.13,South,178,0.0,0.0,97,0.00,,---,0.00,VWS V14.01,2013-06-14 11:17:00,
2013-06-14 06:22:00,43.3,42.5,28.13,South,178,0.0,0.0,97,0.00,,---,0.00,VWS V14.01,2013-06-14 11:22:00,
2013-06-14 06:27:00,44.3,43.5,28.13,South,178,0.0,0.0,97,0.00,,---,0.00,VWS V14.01,2013-06-14 11:27:00,
2013-06-14 06:32:00,45.0,44.2,28.12,South,178,0.0,0.0,97,0.00,,---,0.00,VWS V14.01,2013-06-14 11:32:00,
2013-06-14 06:37:00,45.6,44.8,28.12,South,178,0.0,0.0,97,0.00,,---,0.00,VWS V14.01,2013-06-14 11:37:00,
2013-06-14 06:43:00,46.3,45.5,28.12,South,178,1.0,1.0,97,0.00,,---,0.00,VWS V14.01,2013-06-14 11:43:00,
2013-06-14 06:48:00,48.3,45.5,28.12,South,178,0.0,0.0,90,0.00,,---,0.00,VWS V14.01,2013-06-14 11:48:00,
2013-06-14 06:53:00,50.4,44.1,28.12,South,178,0.0,0.0,79,0.00,,---,0.00,VWS V14.01,2013-06-14 11:53:00,
2013-06-14 06:58:00,51.8,42.3,28.12,South,178,0.0,0.0,70,0.00,,---,0.00,VWS V14.01,2013-06-14 11:58:00,
2013-06-14 07:03:00,53.2,42.5,28.13,South,178,0.0,0.0,67,0.00,,---,0.00,VWS V14.01,2013-06-14 12:03:00,
2013-06-14 07:08:00,54.2,43.1,28.13,South,178,0.0,1.0,66,0.00,,---,0.00,VWS V14.01,2013-06-14 12:08:00,
2013-06-14 07:13:00,55.1,42.3,28.13,South,178,0.0,1.0,62,0.00,,---,0.00,VWS V14.01,2013-06-14 12:13:00,
2013-06-14 07:18:00,55.9,42.7,28.13,South,178,0.0,1.0,61,0.00,,---,0.00,VWS V14.01,2013-06-14 12:18:00,
2013-06-14 07:24:00,56.4,41.8,28.13,South,178,3.0,3.0,58,0.00,,---,0.00,VWS V14.01,2013-06-14 12:24:00,
2013-06-14 07:29:00,56.8,41.3,28.13,South,178,2.0,3.0,56,0.00,,---,0.00,VWS V14.01,2013-06-14 12:29:00,
2013-06-14 07:34:00,57.0,40.1,28.13,ESE,122,1.0,2.0,53,0.00,,---,0.00,VWS V14.01,2013-06-14 12:34:00,
2013-06-14 07:39:00,57.4,40.9,28.13,ESE,113,0.0,0.0,54,0.00,,---,0.00,VWS V14.01,2013-06-14 12:39:00,
2013-06-14 07:44:00,57.8,41.3,28.13,ESE,114,3.0,3.0,54,0.00,,---,0.00,VWS V14.01,2013-06-14 12:44:00,
2013-06-14 07:50:00,58.5,42.4,28.12,ESE,114,1.0,2.0,55,0.00,,---,0.00,VWS V14.01,2013-06-14 12:50:00,
2013-06-14 07:55:00,59.0,42.9,28.12,ESE,121,1.0,2.0,55,0.00,,---,0.00,VWS V14.01,2013-06-14 12:55:00,
2013-06-14 08:00:00,59.0,42.4,28.12,SE,137,1.0,2.0,54,0.00,,---,0.00,VWS V14.01,2013-06-14 13:00:00,
2013-06-14 08:05:00,59.6,42.5,28.12,SE,126,1.0,2.0,53,0.00,,---,0.00,VWS V14.01,2013-06-14 13:05:00,
2013-06-14 08:10:00,59.9,43.2,28.12,ESE,121,0.0,1.0,54,0.00,,---,0.00,VWS V14.01,2013-06-14 13:10:00,
2013-06-14 08:15:00,60.8,43.6,28.12,ESE,121,0.0,1.0,53,0.00,,---,0.00,VWS V14.01,2013-06-14 13:15:00,
2013-06-14 08:21:00,61.5,43.2,28.12,ESE,122,1.0,1.0,51,0.00,,---,0.00,VWS V14.01,2013-06-14 13:21:00,
2013-06-14 08:26:00,61.6,43.3,28.12,SSE,163,5.0,5.0,51,0.00,,---,0.00,VWS V14.01,2013-06-14 13:26:00,
2013-06-14 08:31:00,62.0,44.2,28.12,SSE,159,0.0,0.0,52,0.00,,---,0.00,VWS V14.01,2013-06-14 13:31:00,
2013-06-14 08:36:00,62.7,43.3,28.12,SSW,208,2.0,4.0,49,0.00,,---,0.00,VWS V14.01,2013-06-14 13:36:00,
2013-06-14 08:41:00,62.7,43.8,28.12,SSE,150,0.0,0.0,50,0.00,,---,0.00,VWS V14.01,2013-06-14 13:41:00,
2013-06-14 08:47:00,63.1,44.7,28.12,SSE,155,2.0,3.0,51,0.00,,---,0.00,VWS V14.01,2013-06-14 13:47:00,
2013-06-14 08:52:00,63.4,42.8,28.12,South,169,0.0,1.0,47,0.00,,---,0.00,VWS V14.01,2013-06-14 13:52:00,
2013-06-14 08:57:00,63.6,43.0,28.12,SW,220,4.0,7.0,47,0.00,,---,0.00,VWS V14.01,2013-06-14 13:57:00,
2013-06-14 09:02:00,63.8,42.6,28.12,South,174,2.0,6.0,46,0.00,,---,0.00,VWS V14.01,2013-06-14 14:02:00,
2013-06-14 09:07:00,63.8,43.2,28.12,South,172,0.0,0.0,47,0.00,,---,0.00,VWS V14.01,2013-06-14 14:07:00,
2013-06-14 09:13:00,64.4,44.8,28.12,South,175,4.0,4.0,49,0.00,,---,0.00,VWS V14.01,2013-06-14 14:13:00,
2013-06-14 09:18:00,65.0,45.4,28.12,SSE,159,1.0,1.0,49,0.00,,---,0.00,VWS V14.01,2013-06-14 14:18:00,
2013-06-14 09:23:00,64.9,44.8,28.12,South,171,2.0,3.0,48,0.00,,---,0.00,VWS V14.01,2013-06-14 14:23:00,
2013-06-14 09:28:00,64.9,44.8,28.12,South,184,0.0,2.0,48,0.00,,---,0.00,VWS V14.01,2013-06-14 14:28:00,
2013-06-14 09:33:00,65.1,44.4,28.12,South,190,3.0,3.0,47,0.00,,---,0.00,VWS V14.01,2013-06-14 14:33:00,
2013-06-14 09:38:00,65.6,44.8,28.12,South,173,5.0,5.0,47,0.00,,---,0.00,VWS V14.01,2013-06-14 14:38:00,
2013-06-14 09:44:00,65.8,43.3,28.12,SSW,201,4.0,5.0,44,0.00,,---,0.00,VWS V14.01,2013-06-14 14:44:00,
2013-06-14 09:49:00,65.8,43.9,28.12,SSE,155,3.0,7.0,45,0.00,,---,0.00,VWS V14.01,2013-06-14 14:49:00,
2013-06-14 09:54:00,65.9,43.4,28.12,South,177,1.0,4.0,44,0.00,,---,0.00,VWS V14.01,2013-06-14 14:54:00,
2013-06-14 09:59:00,66.7,45.3,28.12,South,181,1.0,2.0,46,0.00,,---,0.00,VWS V14.01,2013-06-14 14:59:00,
2013-06-14 10:04:00,67.4,43.5,28.12,South,169,0.0,0.0,42,0.00,,---,0.00,VWS V14.01,2013-06-14 15:04:00,
2013-06-14 10:10:00,67.8,44.5,28.12,ESE,104,2.0,2.0,43,0.00,,---,0.00,VWS V14.01,2013-06-14 15:10:00,
2013-06-14 10:15:00,67.9,44.6,28.12,SSW,205,5.0,5.0,43,0.00,,---,0.00,VWS V14.01,2013-06-14 15:15:00,
2013-06-14 10:20:00,67.7,43.2,28.12,SE,137,1.0,6.0,41,0.00,,---,0.00,VWS V14.01,2013-06-14 15:20:00,
2013-06-14 10:25:00,67.9,46.4,28.12,South,183,5.0,5.0,46,0.00,,---,0.00,VWS V14.01,2013-06-14 15:25:00,
2013-06-14 10:30:00,68.3,45.6,28.12,South,188,0.0,0.0,44,0.00,,---,0.00,VWS V14.01,2013-06-14 15:30:00,
2013-06-14 10:36:00,68.5,44.5,28.12,South,180,2.0,3.0,42,0.00,,---,0.00,VWS V14.01,2013-06-14 15:36:00,
2013-06-14 10:41:00,68.4,43.8,28.12,South,175,2.0,4.0,41,0.00,,---,0.00,VWS V14.01,2013-06-14 15:41:00,
2013-06-14 10:46:00,68.7,44.7,28.11,SSE,166,4.0,4.0,42,0.00,,---,0.00,VWS V14.01,2013-06-14 15:46:00,
2013-06-14 10:51:00,68.5,43.2,28.11,South,179,1.0,5.0,40,0.00,,---,0.00,VWS V14.01,2013-06-14 15:51:00,
2013-06-14 10:56:00,68.4,43.8,28.11,South,188,2.0,2.0,41,0.00,,---,0.00,VWS V14.01,2013-06-14 15:56:00,
2013-06-14 11:01:00,68.2,43.0,28.10,South,171,3.0,3.0,40,0.00,,---,0.00,VWS V14.01,2013-06-14 16:01:00,
2013-06-14 11:07:00,68.3,45.0,28.10,SE,127,1.0,2.0,43,0.00,,---,0.00,VWS V14.01,2013-06-14 16:07:00,
2013-06-14 11:12:00,68.2,43.6,28.10,South,170,4.0,4.0,41,0.00,,---,0.00,VWS V14.01,2013-06-14 16:12:00,
2013-06-14 11:17:00,68.4,47.4,28.09,SE,146,0.0,3.0,47,0.00,,---,0.00,VWS V14.01,2013-06-14 16:17:00,
2013-06-14 11:22:00,69.4,43.4,28.09,SSE,152,6.0,6.0,39,0.00,,---,0.00,VWS V14.01,2013-06-14 16:22:00,
2013-06-14 11:27:00,69.4,44.1,28.09,South,186,3.0,3.0,40,0.00,,---,0.00,VWS V14.01,2013-06-14 16:27:00,
2013-06-14 11:33:00,69.8,43.8,28.09,SSE,153,5.0,5.0,39,0.00,,---,0.00,VWS V14.01,2013-06-14 16:33:00,
2013-06-14 11:38:00,69.4,43.4,28.09,SSE,164,0.0,1.0,39,0.00,,---,0.00,VWS V14.01,2013-06-14 16:38:00,
2013-06-14 11:43:00,70.0,43.2,28.09,South,190,3.0,4.0,38,0.00,,---,0.00,VWS V14.01,2013-06-14 16:43:00,
2013-06-14 11:48:00,70.3,44.2,28.09,SSE,163,3.0,7.0,39,0.00,,---,0.00,VWS V14.01,2013-06-14 16:48:00,
2013-06-14 11:53:00,70.2,44.8,28.09,South,171,0.0,2.0,40,0.00,,---,0.00,VWS V14.01,2013-06-14 16:53:00,
2013-06-14 11:59:00,70.8,44.6,28.09,SSE,148,5.0,6.0,39,0.00,,---,0.00,VWS V14.01,2013-06-14 16:59:00,
2013-06-14 12:04:00,70.9,44.7,28.08,SE,143,4.0,4.0,39,0.00,,---,0.00,VWS V14.01,2013-06-14 17:04:00,
2013-06-14 12:09:00,70.8,43.3,28.08,SSE,163,1.0,9.0,37,0.00,,---,0.00,VWS V14.01,2013-06-14 17:09:00,
2013-06-14 12:14:00,71.0,44.8,28.08,South,182,4.0,4.0,39,0.00,,---,0.00,VWS V14.01,2013-06-14 17:14:00,
2013-06-14 12:19:00,71.1,46.2,28.08,South,182,6.0,6.0,41,0.00,,---,0.00,VWS V14.01,2013-06-14 17:19:00,
2013-06-14 12:24:00,71.5,44.6,28.08,WSW,238,3.0,4.0,38,0.00,,---,0.00,VWS V14.01,2013-06-14 17:24:00,
2013-06-14 12:30:00,71.0,46.1,28.08,SW,214,5.0,5.0,41,0.00,,---,0.00,VWS V14.01,2013-06-14 17:30:00,
2013-06-14 12:35:00,71.0,44.1,28.07,SW,223,1.0,5.0,38,0.00,,---,0.00,VWS V14.01,2013-06-14 17:35:00,
2013-06-14 12:40:00,71.3,45.8,28.07,SSW,196,2.0,3.0,40,0.00,,---,0.00,VWS V14.01,2013-06-14 17:40:00,
2013-06-14 12:45:00,70.8,45.3,28.06,SSW,194,1.0,1.0,40,0.00,,---,0.00,VWS V14.01,2013-06-14 17:45:00,
2013-06-14 12:50:00,71.3,45.8,28.06,SW,222,0.0,0.0,40,0.00,,---,0.00,VWS V14.01,2013-06-14 17:50:00,
2013-06-14 12:56:00,71.7,46.1,28.06,SSW,205,3.0,6.0,40,0.00,,---,0.00,VWS V14.01,2013-06-14 17:56:00,
2013-06-14 13:01:00,71.1,44.2,28.06,South,183,1.0,6.0,38,0.00,,---,0.00,VWS V14.01,2013-06-14 18:01:00,
2013-06-14 13:06:00,71.1,44.2,28.06,South,180,1.0,3.0,38,0.00,,---,0.00,VWS V14.01,2013-06-14 18:06:00,
2013-06-14 13:11:00,72.0,44.3,28.06,SSE,167,2.0,2.0,37,0.00,,---,0.00,VWS V14.01,2013-06-14 18:11:00,
2013-06-14 13:16:00,72.7,46.3,28.06,South,190,2.0,5.0,39,0.00,,---,0.00,VWS V14.01,2013-06-14 18:16:00,
2013-06-14 13:22:00,72.9,45.1,28.06,South,172,2.0,5.0,37,0.00,,---,0.00,VWS V14.01,2013-06-14 18:22:00,
2013-06-14 13:27:00,72.6,46.9,28.06,SW,224,2.0,3.0,40,0.00,,---,0.00,VWS V14.01,2013-06-14 18:27:00,
2013-06-14 13:32:00,72.3,46.7,28.06,SE,142,6.0,6.0,40,0.00,,---,0.00,VWS V14.01,2013-06-14 18:32:00,
2013-06-14 13:37:00,72.6,46.2,28.06,South,187,3.0,5.0,39,0.00,,---,0.00,VWS V14.01,2013-06-14 18:37:00,
2013-06-14 13:43:00,72.3,44.6,28.06,SE,143,3.0,5.0,37,0.00,,---,0.00,VWS V14.01,2013-06-14 18:43:00,
2013-06-14 13:48:00,72.6,44.1,28.06,South,178,2.0,4.0,36,0.00,,---,0.00,VWS V14.01,2013-06-14 18:48:00,
2013-06-14 13:53:00,72.6,44.1,28.06,South,188,0.0,3.0,36,0.00,,---,0.00,VWS V14.01,2013-06-14 18:53:00,
2013-06-14 13:58:00,72.1,45.1,28.06,ESE,116,4.0,5.0,38,0.00,,---,0.00,VWS V14.01,2013-06-14 18:58:00,
2013-06-14 14:03:00,72.7,46.3,28.05,SSE,159,0.0,1.0,39,0.00,,---,0.00,VWS V14.01,2013-06-14 19:03:00,
2013-06-14 14:09:00,73.1,46.0,28.05,ESE,112,4.0,4.0,38,0.00,,---,0.00,VWS V14.01,2013-06-14 19:09:00,
2013-06-14 14:14:00,72.0,44.3,28.05,SSE,157,2.0,7.0,37,0.00,,---,0.00,VWS V14.01,2013-06-14 19:14:00,
2013-06-14 14:19:00,72.4,45.4,28.04,ESE,107,5.0,5.0,38,0.00,,---,0.00,VWS V14.01,2013-06-14 19:19:00,
2013-06-14 14:24:00,71.5,43.2,28.04,SSW,206,4.0,9.0,36,0.00,,---,0.00,VWS V14.01,2013-06-14 19:24:00,
2013-06-14 14:29:00,71.4,45.2,28.04,SSE,161,2.0,7.0,39,0.00,,---,0.00,VWS V14.01,2013-06-14 19:29:00,
2013-06-14 14:34:00,72.1,46.5,28.04,South,176,0.0,2.0,40,0.00,,---,0.00,VWS V14.01,2013-06-14 19:34:00,
2013-06-14 14:39:00,73.1,45.3,28.04,SSE,149,8.0,9.0,37,0.00,,---,0.00,VWS V14.01,2013-06-14 19:39:00,
2013-06-14 14:44:00,72.7,45.7,28.04,SE,142,5.0,8.0,38,0.00,,---,0.00,VWS V14.01,2013-06-14 19:44:00,
2013-06-14 14:49:00,72.3,46.7,28.05,WSW,240,4.0,10.0,40,0.00,,---,0.00,VWS V14.01,2013-06-14 19:49:00,
2013-06-14 14:54:00,72.1,45.8,28.05,SW,225,0.0,6.0,39,0.00,,---,0.00,VWS V14.01,2013-06-14 19:54:00,
2013-06-14 14:59:00,72.0,46.4,28.05,SSW,196,1.0,2.0,40,0.00,,---,0.00,VWS V14.01,2013-06-14 19:59:00,
2013-06-14 15:04:00,71.7,46.8,28.04,SSE,158,2.0,4.0,41,0.00,,---,0.00,VWS V14.01,2013-06-14 20:04:00,
2013-06-14 15:09:00,71.5,45.3,28.04,SSE,150,7.0,7.0,39,0.00,,---,0.00,VWS V14.01,2013-06-14 20:09:00,
2013-06-14 15:14:00,71.5,44.6,28.04,SSE,149,1.0,1.0,38,0.00,,---,0.00,VWS V14.01,2013-06-14 20:14:00,
2013-06-14 15:19:00,71.7,46.8,28.03,SSE,151,5.0,5.0,41,0.00,,---,0.00,VWS V14.01,2013-06-14 20:19:00,
2013-06-14 15:24:00,72.2,46.6,28.03,South,170,3.0,8.0,40,0.00,,---,0.00,VWS V14.01,2013-06-14 20:24:00,
2013-06-14 15:30:00,71.7,46.1,28.03,SSW,194,4.0,6.0,40,0.00,,---,0.00,VWS V14.01,2013-06-14 20:30:00,
2013-06-14 15:35:00,71.0,46.1,28.03,South,169,9.0,9.0,41,0.00,,---,0.00,VWS V14.01,2013-06-14 20:35:00,
2013-06-14 15:40:00,70.6,44.5,28.03,SW,216,1.0,2.0,39,0.00,,---,0.00,VWS V14.01,2013-06-14 20:40:00,
2013-06-14 15:45:00,70.7,45.2,28.03,South,176,0.0,4.0,40,0.00,,---,0.00,VWS V14.01,2013-06-14 20:45:00,
2013-06-14 15:50:00,71.5,46.6,28.03,South,186,4.0,4.0,41,0.00,,---,0.00,VWS V14.01,2013-06-14 20:50:00,
2013-06-14 15:56:00,71.1,44.9,28.03,SE,146,2.0,5.0,39,0.00,,---,0.00,VWS V14.01,2013-06-14 20:56:00,
2013-06-14 16:01:00,70.4,45.0,28.02,SSE,163,3.0,5.0,40,0.00,,---,0.00,VWS V14.01,2013-06-14 21:01:00,
2013-06-14 16:06:00,70.1,44.7,28.02,SE,145,5.0,5.0,40,0.00,,---,0.00,VWS V14.01,2013-06-14 21:06:00,
2013-06-14 16:11:00,69.5,46.7,28.02,SE,126,1.0,2.0,44,0.00,,---,0.00,VWS V14.01,2013-06-14 21:11:00,
2013-06-14 16:16:00,69.6,45.5,28.01,South,170,2.0,2.0,42,0.00,,---,0.00,VWS V14.01,2013-06-14 21:16:00,
2013-06-14 16:21:00,70.4,45.6,28.01,South,171,1.0,2.0,41,0.00,,---,0.00,VWS V14.01,2013-06-14 21:21:00,
2013-06-14 16:26:00,70.6,45.1,28.01,SSE,148,3.0,6.0,40,0.00,,---,0.00,VWS V14.01,2013-06-14 21:26:00,
2013-06-14 16:32:00,70.4,44.3,28.01,SSW,210,3.0,6.0,39,0.00,,---,0.00,VWS V14.01,2013-06-14 21:32:00,
2013-06-14 16:37:00,69.9,45.2,28.01,South,191,1.0,2.0,41,0.00,,---,0.00,VWS V14.01,2013-06-14 21:37:00,
2013-06-14 16:42:00,70.3,44.9,28.01,SSE,159,5.0,11.0,40,0.00,,---,0.00,VWS V14.01,2013-06-14 21:42:00,
2013-06-14 16:47:00,70.2,44.1,28.01,SSE,161,0.0,4.0,39,0.00,,---,0.00,VWS V14.01,2013-06-14 21:47:00,
2013-06-14 16:52:00,70.2,44.8,28.01,SE,138,6.0,6.0,40,0.00,,---,0.00,VWS V14.01,2013-06-14 21:52:00,
2013-06-14 16:58:00,68.8,45.4,28.01,SE,138,4.0,6.0,43,0.00,,---,0.00,VWS V14.01,2013-06-14 21:58:00,
2013-06-14 17:03:00,68.0,44.1,28.00,SE,146,7.0,8.0,42,0.00,,---,0.00,VWS V14.01,2013-06-14 22:03:00,
2013-06-14 17:08:00,67.6,44.9,28.00,SE,142,4.0,6.0,44,0.00,,---,0.00,VWS V14.01,2013-06-14 22:08:00,
2013-06-14 17:13:00,67.3,45.2,28.00,South,169,3.0,3.0,45,0.00,,---,0.00,VWS V14.01,2013-06-14 22:13:00,
2013-06-14 17:18:00,67.2,45.2,28.01,South,180,0.0,3.0,45,0.00,,---,0.00,VWS V14.01,2013-06-14 22:18:00,
2013-06-14 17:23:00,67.3,46.4,28.01,SSE,155,6.0,8.0,47,0.00,,---,0.00,VWS V14.01,2013-06-14 22:23:00,
2013-06-14 17:28:00,67.0,45.6,28.01,South,177,0.0,4.0,46,0.00,,---,0.00,VWS V14.01,2013-06-14 22:28:00,
2013-06-14 17:33:00,66.7,46.4,28.01,SW,229,0.0,0.0,48,0.00,,---,0.00,VWS V14.01,2013-06-14 22:33:00,
2013-06-14 17:39:00,66.1,44.2,28.01,South,180,3.0,3.0,45,0.00,,---,0.00,VWS V14.01,2013-06-14 22:39:00,
2013-06-14 17:44:00,65.6,46.0,28.01,South,173,0.0,0.0,49,0.00,,---,0.00,VWS V14.01,2013-06-14 22:44:00,
2013-06-14 17:49:00,65.2,44.5,28.02,SSE,154,3.0,6.0,47,0.00,,---,0.00,VWS V14.01,2013-06-14 22:49:00,
2013-06-14 17:54:00,64.4,43.8,28.02,SSE,164,2.0,4.0,47,0.00,,---,0.00,VWS V14.01,2013-06-14 22:54:00,
2013-06-14 17:59:00,64.1,43.5,28.02,South,175,0.0,2.0,47,0.00,,---,0.00,VWS V14.01,2013-06-14 22:59:00,
2013-06-14 18:04:00,63.9,45.4,28.02,South,174,0.0,2.0,51,0.00,,---,0.00,VWS V14.01,2013-06-14 23:04:00,
2013-06-14 18:09:00,63.7,44.2,28.02,SW,222,1.0,1.0,49,0.00,,---,0.00,VWS V14.01,2013-06-14 23:09:00,
2013-06-14 18:14:00,63.6,43.6,28.02,SSE,158,0.0,3.0,48,0.00,,---,0.00,VWS V14.01,2013-06-14 23:14:00,
2013-06-14 18:19:00,63.6,42.5,28.02,SSE,160,0.0,3.0,46,0.00,,---,0.00,VWS V14.01,2013-06-14 23:19:00,
2013-06-14 18:25:00,63.6,44.1,28.02,SE,128,0.0,0.0,49,0.00,,---,0.00,VWS V14.01,2013-06-14 23:25:00,
2013-06-14 18:30:00,63.4,43.9,28.02,South,182,1.0,1.0,49,0.00,,---,0.00,VWS V14.01,2013-06-14 23:30:00,
2013-06-14 18:35:00,63.3,42.2,28.01,South,178,0.0,0.0,46,0.00,,---,0.00,VWS V14.01,2013-06-14 23:35:00,
2013-06-14 18:40:00,63.1,42.6,28.01,South,170,0.0,0.0,47,0.00,,---,0.00,VWS V14.01,2013-06-14 23:40:00,
2013-06-14 18:45:00,62.9,42.9,28.01,SSE,165,0.0,0.0,48,0.00,,---,0.00,VWS V14.01,2013-06-14 23:45:00,
2013-06-14 18:51:00,62.9,43.5,28.01,SSE,167,0.0,0.0,49,0.00,,---,0.00,VWS V14.01,2013-06-14 23:51:00,
2013-06-14 18:56:00,63.0,43.0,28.01,SSE,167,0.0,1.0,48,0.00,,---,0.00,VWS V14.01,2013-06-14 23:56:00,
2013-06-14 19:01:00,63.0,42.5,28.00,SSE,166,1.0,1.0,47,0.00,,---,0.00,VWS V14.01,2013-06-15 00:01:00,
2013-06-14 19:06:00,62.9,41.8,28.00,SSE,160,0.0,1.0,46,0.00,,---,0.00,VWS V14.01,2013-06-15 00:06:00,
2013-06-14 19:11:00,62.7,41.6,28.00,SE,145,0.0,2.0,46,0.00,,---,0.00,VWS V14.01,2013-06-15 00:11:00,
2013-06-14 19:16:00,62.6,42.1,28.00,SE,144,0.0,2.0,47,0.00,,---,0.00,VWS V14.01,2013-06-15 00:16:00,
2013-06-14 19:21:00,62.5,42.6,28.00,SE,145,0.0,1.0,48,0.00,,---,0.00,VWS V14.01,2013-06-15 00:21:00,
2013-06-14 19:26:00,62.3,44.0,28.00,SE,145,0.0,0.0,51,0.00,,---,0.00,VWS V14.01,2013-06-15 00:26:00,
2013-06-14 19:32:00,62.0,43.2,27.99,SE,144,1.0,3.0,50,0.00,,---,0.00,VWS V14.01,2013-06-15 00:32:00,
2013-06-14 19:37:00,61.8,43.0,27.99,SE,144,0.0,1.0,50,0.00,,---,0.00,VWS V14.01,2013-06-15 00:37:00,
2013-06-14 19:42:00,61.8,43.0,27.99,SE,144,0.0,0.0,50,0.00,,---,0.00,VWS V14.01,2013-06-15 00:42:00,
2013-06-14 19:47:00,61.7,42.4,28.00,SE,144,0.0,0.0,49,0.00,,---,0.00,VWS V14.01,2013-06-15 00:47:00,
2013-06-14 19:53:00,61.6,43.8,28.00,SE,144,0.0,0.0,52,0.00,,---,0.00,VWS V14.01,2013-06-15 00:53:00,
2013-06-14 19:58:00,61.5,43.7,28.00,SE,144,0.0,0.0,52,0.00,,---,0.00,VWS V14.01,2013-06-15 00:58:00,
2013-06-14 20:03:00,61.3,44.5,28.00,SE,144,0.0,0.0,54,0.00,,---,0.00,VWS V14.01,2013-06-15 01:03:00,
2013-06-14 20:08:00,61.1,43.4,28.00,SE,144,1.0,2.0,52,0.00,,---,0.00,VWS V14.01,2013-06-15 01:08:00,
2013-06-14 20:14:00,60.8,44.1,28.00,SE,144,0.0,0.0,54,0.00,,---,0.00,VWS V14.01,2013-06-15 01:14:00,
2013-06-14 20:19:00,60.5,42.3,27.99,SSE,151,0.0,1.0,51,0.00,,---,0.00,VWS V14.01,2013-06-15 01:19:00,
2013-06-14 20:24:00,60.4,42.2,27.99,SSE,153,0.0,2.0,51,0.00,,---,0.00,VWS V14.01,2013-06-15 01:24:00,
2013-06-14 20:29:00,60.2,41.0,27.99,SSE,163,0.0,2.0,49,0.00,,---,0.00,VWS V14.01,2013-06-15 01:29:00,
2013-06-14 20:34:00,60.2,40.5,27.99,South,171,0.0,4.0,48,0.00,,---,0.00,VWS V14.01,2013-06-15 01:34:00,
2013-06-14 20:39:00,60.0,40.8,27.99,SSE,150,0.0,2.0,49,0.00,,---,0.00,VWS V14.01,2013-06-15 01:39:00,
2013-06-14 20:44:00,59.9,40.7,27.99,SSE,156,0.0,1.0,49,0.00,,---,0.00,VWS V14.01,2013-06-15 01:44:00,
2013-06-14 20:49:00,59.7,40.5,28.00,SE,139,0.0,5.0,49,0.00,,---,0.00,VWS V14.01,2013-06-15 01:49:00,
2013-06-14 20:54:00,59.6,40.4,28.00,SSE,151,0.0,1.0,49,0.00,,---,0.00,VWS V14.01,2013-06-15 01:54:00,
2013-06-14 20:59:00,59.4,39.7,28.00,SE,141,1.0,1.0,48,0.00,,---,0.00,VWS V14.01,2013-06-15 01:59:00,
2013-06-14 21:04:00,59.3,40.2,28.00,SSE,152,0.0,0.0,49,0.00,,---,0.00,VWS V14.01,2013-06-15 02:04:00,
2013-06-14 21:10:00,59.1,40.0,28.00,SSE,153,0.0,0.0,49,0.00,,---,0.00,VWS V14.01,2013-06-15 02:10:00,
2013-06-14 21:15:00,59.0,40.4,28.00,SSE,153,0.0,0.0,50,0.00,,---,0.00,VWS V14.01,2013-06-15 02:15:00,
2013-06-14 21:20:00,59.0,39.9,28.00,SSE,153,0.0,3.0,49,0.00,,---,0.00,VWS V14.01,2013-06-15 02:20:00,
2013-06-14 21:25:00,58.8,40.2,28.00,SSE,153,0.0,1.0,50,0.00,,---,0.00,VWS V14.01,2013-06-15 02:25:00,
2013-06-14 21:30:00,58.6,41.0,28.00,SE,144,0.0,1.0,52,0.00,,---,0.00,VWS V14.01,2013-06-15 02:30:00,
2013-06-14 21:35:00,58.3,40.8,28.00,SE,144,0.0,0.0,52,0.00,,---,0.00,VWS V14.01,2013-06-15 02:35:00,
2013-06-14 21:40:00,57.9,41.8,28.00,SE,132,0.0,1.0,55,0.00,,---,0.00,VWS V14.01,2013-06-15 02:40:00,
2013-06-14 21:45:00,57.6,41.6,28.00,SE,133,0.0,3.0,55,0.00,,---,0.00,VWS V14.01,2013-06-15 02:45:00,
2013-06-14 21:50:00,57.4,41.8,27.98,SE,136,2.0,2.0,56,0.00,,---,0.00,VWS V14.01,2013-06-15 02:50:00,
2013-06-14 21:55:00,57.3,42.7,27.98,SSE,165,3.0,6.0,58,0.00,,---,0.00,VWS V14.01,2013-06-15 02:55:00,
2013-06-14 22:00:00,57.2,42.6,27.96,ESE,123,3.0,4.0,58,0.00,,---,0.00,VWS V14.01,2013-06-15 03:00:00,
2013-06-14 22:06:00,57.2,42.1,27.96,South,170,3.0,5.0,57,0.00,,---,0.00,VWS V14.01,2013-06-15 03:06:00,
2013-06-14 22:11:00,57.0,42.4,27.96,ESE,117,1.0,3.0,58,0.00,,---,0.00,VWS V14.01,2013-06-15 03:11:00,
2013-06-14 22:16:00,56.6,42.0,27.97,ESE,115,0.0,1.0,58,0.00,,---,0.00,VWS V14.01,2013-06-15 03:16:00,
2013-06-14 22:21:00,56.3,42.2,27.97,ESE,115,0.0,2.0,59,0.00,,---,0.00,VWS V14.01,2013-06-15 03:21:00,
2013-06-14 22:26:00,55.9,41.3,27.97,ESE,115,0.0,0.0,58,0.00,,---,0.00,VWS V14.01,2013-06-15 03:26:00,
2013-06-14 22:31:00,55.6,41.5,27.96,SE,143,3.0,3.0,59,0.00,,---,0.00,VWS V14.01,2013-06-15 03:31:00,
2013-06-14 22:37:00,55.5,40.1,27.96,SSE,163,1.0,2.0,56,0.00,,---,0.00,VWS V14.01,2013-06-15 03:37:00,
2013-06-14 22:42:00,55.5,39.6,27.96,SSE,150,0.0,2.0,55,0.00,,---,0.00,VWS V14.01,2013-06-15 03:42:00,
2013-06-14 22:47:00,55.5,40.1,27.95,East,98,0.0,3.0,56,0.00,,---,0.00,VWS V14.01,2013-06-15 03:47:00,
2013-06-14 22:52:00,55.4,38.1,27.95,SE,143,5.0,6.0,52,0.00,,---,0.00,VWS V14.01,2013-06-15 03:52:00,
2013-06-14 22:58:00,55.3,37.5,27.95,SE,139,0.0,7.0,51,0.00,,---,0.00,VWS V14.01,2013-06-15 03:58:00,
2013-06-14 23:01:00,55.2,37.9,27.95,SSE,159,3.0,4.0,52,0.00,,---,0.00,VWS V14.01,2013-06-15 04:01:00,
2013-06-14 23:02:00,55.2,38.4,27.95,SSE,164,1.0,3.0,53,0.00,,---,0.00,VWS V14.01,2013-06-15 04:02:00,
2013-06-14 23:03:00,55.2,38.4,27.95,SSE,164,1.0,1.0,53,0.00,,---,0.00,VWS V14.01,2013-06-15 04:03:00,
2013-06-14 23:08:00,55.0,38.7,27.95,South,173,4.0,4.0,54,0.00,,---,0.00,VWS V14.01,2013-06-15 04:08:00,
2013-06-14 23:13:00,55.0,37.7,27.95,SSE,157,0.0,3.0,52,0.00,,---,0.00,VWS V14.01,2013-06-15 04:13:00,
2013-06-14 23:18:00,55.1,38.3,27.95,SSE,164,4.0,4.0,53,0.00,,---,0.00,VWS V14.01,2013-06-15 04:18:00,
2013-06-14 23:23:00,55.2,38.4,27.95,ESE,122,0.0,7.0,53,0.00,,---,0.00,VWS V14.01,2013-06-15 04:23:00,
2013-06-14 23:28:00,55.2,38.4,27.95,SE,126,1.0,2.0,53,0.00,,---,0.00,VWS V14.01,2013-06-15 04:28:00,
2013-06-14 23:33:00,55.1,38.3,27.95,SSE,153,1.0,4.0,53,0.00,,---,0.00,VWS V14.01,2013-06-15 04:33:00,
2013-06-14 23:38:00,55.2,37.9,27.95,East,94,1.0,2.0,52,0.00,,---,0.00,VWS V14.01,2013-06-15 04:38:00,
2013-06-14 23:44:00,55.4,38.1,27.95,ESE,119,0.0,0.0,52,0.00,,---,0.00,VWS V14.01,2013-06-15 04:44:00,
2013-06-14 23:49:00,55.4,37.6,27.95,SE,130,5.0,7.0,51,0.00,,---,0.00,VWS V14.01,2013-06-15 04:49:00,
2013-06-14 23:54:00,55.3,38.0,27.95,East,92,2.0,5.0,52,0.00,,---,0.00,VWS V14.01,2013-06-15 04:54:00,
2013-06-14 23:59:00,55.1,38.3,27.95,SE,142,1.0,2.0,53,0.00,,---,0.00,VWS V14.01,2013-06-15 04:59:00,